| time (UTC) | temp F | wind direction | speed MPH | gust MPH | rain 1hr in | rain 24hr in | rain mn in | humidity % | barometer mb |
| 20260506073521 | 35 | 360 | 2.0 | 4.0 | 0.00 | 0.00 | 0.00 | 68 | 1015.4 |
| 20260506073019 | 35 | 360 | 2.0 | 5.0 | 0.00 | 0.00 | 0.00 | 68 | 1015.3 |
| 20260506072518 | 35 | 360 | 2.0 | 8.0 | 0.00 | 0.00 | 0.00 | 68 | 1015.3 |
| 20260506072018 | 35 | 360 | 3.0 | 8.0 | 0.00 | 0.00 | 0.00 | 67 | 1015.3 |
| 20260506071518 | 35 | 360 | 2.0 | 6.0 | 0.00 | 0.00 | 0.00 | 68 | 1015.4 |
| 20260506071015 | 35 | 360 | 1.0 | 6.0 | 0.00 | 0.00 | 0.00 | 67 | 1015.5 |
| 20260506070516 | 35 | 360 | 1.0 | 4.0 | 0.00 | 0.00 | 0.00 | 67 | 1015.4 |
| 20260506062013 | 35 | 360 | 2.0 | 5.0 | 0.00 | 0.00 | 0.00 | 67 | 1015.3 |
| 20260506061512 | 35 | 360 | 2.0 | 4.0 | 0.00 | 0.00 | 0.00 | 67 | 1015.3 |
| 20260506061019 | 35 | 360 | 1.0 | 4.0 | 0.00 | 0.00 | 0.00 | 67 | 1015.3 |
| 20260506060511 | 35 | 360 | 1.0 | 4.0 | 0.00 | 0.00 | 0.00 | 67 | 1015.3 |
| 20260506051004 | 36 | 360 | 2.0 | 4.0 | 0.00 | 0.00 | 0.00 | 67 | 1015.0 |
| 20260506050508 | 36 | 360 | 1.0 | 4.0 | 0.00 | 0.00 | 0.00 | 67 | 1015.0 |
| 20260506045002 | 36 | 360 | 0.0 | 3.0 | 0.00 | 0.00 | 0.00 | 67 | 1014.9 |
| 20260506044502 | 36 | 360 | 1.0 | 3.0 | 0.00 | 0.00 | 0.00 | 67 | 1014.9 |
| 20260506044001 | 36 | 360 | 0.0 | 2.0 | 0.00 | 0.00 | 0.00 | 67 | 1014.9 |
| 20260506043503 | 36 | 360 | 0.0 | 3.0 | 0.00 | 0.00 | 0.00 | 67 | 1014.9 |
| 20260506043001 | 36 | 360 | 0.0 | 4.0 | 0.00 | 0.00 | 0.00 | 66 | 1014.8 |
| 20260506042502 | 36 | 360 | 1.0 | 4.0 | 0.00 | 0.00 | 0.00 | 66 | 1014.9 |
| 20260506042005 | 36 | 360 | 1.0 | 4.0 | 0.00 | 0.00 | 0.00 | 67 | 1014.9 |
| 20260506041502 | 36 | 360 | 2.0 | 4.0 | 0.00 | 0.00 | 0.00 | 66 | 1014.9 |
| 20260506041001 | 36 | 360 | 1.0 | 5.0 | 0.00 | 0.00 | 0.00 | 66 | 1014.9 |
| 20260506040601 | 36 | 360 | 1.0 | 5.0 | 0.00 | 0.00 | 0.00 | 66 | 1014.9 |
| 20260506040100 | 36 | 360 | 2.0 | 6.0 | 0.00 | 0.00 | 0.00 | 66 | 1014.9 |
| 20260506040001 | 36 | 360 | 2.0 | 6.0 | 0.00 | 0.00 | 0.00 | 66 | 1014.8 |
| 20260506035601 | 35 | 360 | 1.0 | 6.0 | 0.00 | 0.00 | 0.00 | 66 | 1014.7 |
| 20260506035059 | 35 | 360 | 0.0 | 2.0 | 0.00 | 0.00 | 0.00 | 67 | 1014.7 |
| 20260506034600 | 35 | 360 | 0.0 | 2.0 | 0.00 | 0.00 | 0.00 | 67 | 1014.7 |
| 20260506034058 | 35 | 360 | 0.0 | 3.0 | 0.00 | 0.00 | 0.00 | 66 | 1014.6 |
| 20260506033557 | 35 | 360 | 0.0 | 3.0 | 0.00 | 0.00 | 0.00 | 66 | 1014.5 |
| 20260506033110 | 35 | 360 | 0.0 | 2.0 | 0.00 | 0.00 | 0.00 | 66 | 1014.5 |
| 20260506032557 | 35 | 360 | 0.0 | 2.0 | 0.00 | 0.00 | 0.00 | 66 | 1014.4 |
| 20260506032056 | 35 | 360 | 0.0 | 2.0 | 0.00 | 0.00 | 0.00 | 66 | 1014.5 |
| 20260506031558 | 35 | 360 | 0.0 | 2.0 | 0.00 | 0.00 | 0.00 | 65 | 1014.5 |
| 20260506031059 | 35 | 360 | 0.0 | 2.0 | 0.00 | 0.00 | 0.00 | 65 | 1014.5 |
| 20260506030600 | 35 | 360 | 0.0 | 3.0 | 0.00 | 0.00 | 0.00 | 65 | 1014.4 |
| 20260506030055 | 35 | 360 | 1.0 | 3.0 | 0.00 | 0.00 | 0.00 | 65 | 1014.4 |
| 20260506025556 | 35 | 360 | 0.0 | 1.0 | 0.00 | 0.00 | 0.00 | 65 | 1014.4 |
| 20260506025054 | 35 | 360 | 0.0 | 1.0 | 0.00 | 0.00 | 0.00 | 65 | 1014.3 |
| 20260506024554 | 36 | 360 | 0.0 | 1.0 | 0.00 | 0.00 | 0.00 | 64 | 1014.2 |
| 20260506024053 | 36 | 360 | 0.0 | 2.0 | 0.00 | 0.00 | 0.00 | 64 | 1014.2 |
| 20260506023554 | 36 | 360 | 0.0 | 2.0 | 0.00 | 0.00 | 0.00 | 63 | 1014.1 |
| 20260506023053 | 36 | 360 | 0.0 | 1.0 | 0.00 | 0.00 | 0.00 | 62 | 1014.0 |
| 20260506022551 | 36 | 360 | 0.0 | 2.0 | 0.00 | 0.00 | 0.00 | 62 | 1014.1 |
| 20260506022051 | 37 | 360 | 0.0 | 2.0 | 0.00 | 0.00 | 0.00 | 62 | 1014.0 |
| 20260506021555 | 37 | 360 | 0.0 | 3.0 | 0.00 | 0.00 | 0.00 | 61 | 1013.9 |
| 20260506021049 | 37 | 360 | 0.0 | 3.0 | 0.00 | 0.00 | 0.00 | 61 | 1013.9 |
| 20260506020549 | 37 | 360 | 0.0 | 3.0 | 0.00 | 0.00 | 0.00 | 61 | 1013.7 |
| 20260506020049 | 38 | 360 | 0.0 | 3.0 | 0.00 | 0.00 | 0.00 | 61 | 1013.7 |
| 20260506015552 | 38 | 360 | 0.0 | 3.0 | 0.00 | 0.00 | 0.00 | 60 | 1013.6 |
| 20260506015048 | 38 | 360 | 0.0 | 3.0 | 0.00 | 0.00 | 0.00 | 60 | 1013.6 |
| 20260506014553 | 38 | 360 | 1.0 | 5.0 | 0.00 | 0.00 | 0.00 | 59 | 1013.5 |
| 20260506014049 | 38 | 360 | 0.0 | 8.0 | 0.00 | 0.00 | 0.00 | 59 | 1013.5 |
| 20260506013549 | 38 | 360 | 2.0 | 8.0 | 0.00 | 0.00 | 0.00 | 58 | 1013.5 |
| 20260506013046 | 39 | 360 | 2.0 | 5.0 | 0.00 | 0.00 | 0.00 | 58 | 1013.4 |
| 20260506012546 | 39 | 360 | 1.0 | 4.0 | 0.00 | 0.00 | 0.00 | 58 | 1013.5 |
| 20260506012044 | 39 | 360 | 2.0 | 4.0 | 0.00 | 0.00 | 0.00 | 58 | 1013.4 |
| 20260506011545 | 39 | 360 | 1.0 | 5.0 | 0.00 | 0.00 | 0.00 | 57 | 1013.3 |
| 20260506011044 | 39 | 360 | 2.0 | 5.0 | 0.00 | 0.00 | 0.00 | 56 | 1013.4 |
| 20260506010545 | 40 | 360 | 1.0 | 6.0 | 0.00 | 0.00 | 0.00 | 58 | 1013.3 |
| 20260506010046 | 40 | 360 | 0.0 | 6.0 | 0.00 | 0.00 | 0.00 | 56 | 1013.2 |
| 20260506005542 | 40 | 360 | 1.0 | 3.0 | 0.00 | 0.00 | 0.00 | 57 | 1013.1 |
| 20260506005044 | 40 | 360 | 1.0 | 3.0 | 0.00 | 0.00 | 0.00 | 55 | 1013.0 |
| 20260506004545 | 40 | 360 | 0.0 | 4.0 | 0.00 | 0.00 | 0.00 | 56 | 1013.0 |
| 20260506004042 | 40 | 360 | 1.0 | 6.0 | 0.00 | 0.00 | 0.00 | 55 | 1012.9 |
| 20260506003543 | 40 | 360 | 2.0 | 6.0 | 0.00 | 0.00 | 0.00 | 54 | 1012.9 |
| 20260506003042 | 41 | 360 | 0.0 | 4.0 | 0.00 | 0.00 | 0.00 | 55 | 1013.0 |
| 20260506002545 | 41 | 360 | 1.0 | 8.0 | 0.00 | 0.00 | 0.00 | 54 | 1013.0 |
| 20260506002041 | 41 | 360 | 3.0 | 9.0 | 0.00 | 0.00 | 0.00 | 54 | 1013.0 |
| 20260506001604 | 41 | 360 | 1.0 | 9.0 | 0.00 | 0.00 | 0.00 | 54 | 1013.0 |
| 20260506001042 | 41 | 360 | 3.0 | 6.0 | 0.00 | 0.00 | 0.00 | 55 | 1013.0 |
| 20260506000542 | 41 | 360 | 1.0 | 5.0 | 0.00 | 0.00 | 0.00 | 56 | 1013.0 |
| 20260506000046 | 41 | 360 | 2.0 | 5.0 | 0.00 | 0.00 | 0.00 | 55 | 1013.0 |
| 20260505235541 | 41 | 360 | 2.0 | 5.0 | 0.00 | 0.00 | 0.00 | 54 | 1013.1 |
| 20260505235041 | 41 | 360 | 2.0 | 6.0 | 0.00 | 0.00 | 0.00 | 55 | 1013.1 |
| 20260505234548 | 41 | 360 | 3.0 | 6.0 | 0.00 | 0.00 | 0.00 | 54 | 1013.1 |
| 20260505234042 | 41 | 360 | 2.0 | 6.0 | 0.00 | 0.00 | 0.00 | 53 | 1013.1 |
| 20260505233539 | 41 | 360 | 0.0 | 8.0 | 0.00 | 0.00 | 0.00 | 54 | 1013.0 |
| 20260505233046 | 41 | 360 | 2.0 | 8.0 | 0.00 | 0.00 | 0.00 | 53 | 1013.0 |
| 20260505232539 | 41 | 360 | 1.0 | 6.0 | 0.00 | 0.00 | 0.00 | 53 | 1013.0 |
| 20260505232039 | 41 | 360 | 2.0 | 6.0 | 0.00 | 0.00 | 0.00 | 53 | 1013.0 |
| 20260505231548 | 41 | 360 | 1.0 | 10.0 | 0.00 | 0.00 | 0.00 | 53 | 1013.0 |
| 20260505231038 | 41 | 360 | 3.0 | 10.0 | 0.00 | 0.00 | 0.00 | 53 | 1013.1 |
| 20260505230538 | 41 | 360 | 1.0 | 9.0 | 0.00 | 0.00 | 0.00 | 53 | 1013.0 |
| 20260505230039 | 41 | 360 | 2.0 | 10.0 | 0.00 | 0.00 | 0.00 | 53 | 1013.0 |
| 20260505225538 | 41 | 360 | 2.0 | 8.0 | 0.00 | 0.00 | 0.00 | 54 | 1012.9 |
| 20260505225038 | 41 | 360 | 2.0 | 10.0 | 0.00 | 0.00 | 0.00 | 53 | 1013.0 |
| 20260505224541 | 41 | 360 | 1.0 | 10.0 | 0.00 | 0.00 | 0.00 | 53 | 1012.9 |
| 20260505224039 | 42 | 360 | 2.0 | 9.0 | 0.00 | 0.00 | 0.00 | 54 | 1012.9 |
| 20260505223537 | 42 | 360 | 2.0 | 5.0 | 0.00 | 0.00 | 0.00 | 54 | 1012.9 |
| 20260505223043 | 41 | 360 | 2.0 | 8.0 | 0.00 | 0.00 | 0.00 | 55 | 1012.7 |
| 20260505222537 | 42 | 360 | 3.0 | 8.0 | 0.00 | 0.00 | 0.00 | 54 | 1012.8 |
| 20260505222037 | 41 | 360 | 2.0 | 6.0 | 0.00 | 0.00 | 0.00 | 54 | 1012.8 |
| 20260505221541 | 42 | 360 | 2.0 | 9.0 | 0.00 | 0.00 | 0.00 | 55 | 1012.8 |
| 20260505221036 | 42 | 360 | 1.0 | 6.0 | 0.00 | 0.00 | 0.00 | 56 | 1012.8 |
| 20260505220540 | 41 | 360 | 3.0 | 6.0 | 0.00 | 0.00 | 0.00 | 56 | 1012.7 |
| 20260505220041 | 41 | 360 | 1.0 | 8.0 | 0.00 | 0.00 | 0.00 | 58 | 1012.8 |
| 20260505215538 | 41 | 360 | 1.0 | 10.0 | 0.00 | 0.00 | 0.00 | 57 | 1012.7 |
| 20260505215036 | 41 | 360 | 2.0 | 10.0 | 0.00 | 0.00 | 0.00 | 57 | 1012.8 |
| 20260505214555 | 42 | 360 | 3.0 | 6.0 | 0.00 | 0.00 | 0.00 | 54 | 1012.7 |
| 20260505214035 | 41 | 360 | 1.0 | 5.0 | 0.00 | 0.00 | 0.00 | 56 | 1012.7 |
| 20260505213535 | 41 | 360 | 1.0 | 13.0 | 0.00 | 0.00 | 0.00 | 56 | 1012.8 |
| 20260505213050 | 41 | 360 | 2.0 | 6.0 | 0.00 | 0.00 | 0.00 | 56 | 1012.9 |
| 20260505212535 | 41 | 360 | 2.0 | 11.0 | 0.00 | 0.00 | 0.00 | 56 | 1012.9 |
| 20260505212035 | 41 | 360 | 2.0 | 8.0 | 0.00 | 0.00 | 0.00 | 56 | 1012.9 |
| 20260505211535 | 41 | 360 | 2.0 | 6.0 | 0.00 | 0.00 | 0.00 | 57 | 1012.9 |
| 20260505211035 | 41 | 360 | 3.0 | 8.0 | 0.00 | 0.00 | 0.00 | 57 | 1012.7 |
| 20260505210534 | 41 | 360 | 2.0 | 8.0 | 0.00 | 0.00 | 0.00 | 56 | 1012.8 |
| 20260505210034 | 41 | 360 | 3.0 | 13.0 | 0.00 | 0.00 | 0.00 | 57 | 1012.8 |
| 20260505205535 | 40 | 360 | 5.0 | 13.0 | 0.00 | 0.00 | 0.00 | 56 | 1012.8 |
| 20260505205034 | 41 | 360 | 3.0 | 6.0 | 0.00 | 0.00 | 0.00 | 56 | 1012.8 |
| 20260505204537 | 41 | 360 | 2.0 | 9.0 | 0.00 | 0.00 | 0.00 | 56 | 1012.8 |
| 20260505204034 | 41 | 360 | 2.0 | 10.0 | 0.00 | 0.00 | 0.00 | 57 | 1012.8 |
| 20260505203533 | 40 | 360 | 2.0 | 6.0 | 0.00 | 0.00 | 0.00 | 57 | 1012.9 |
| 20260505203043 | 40 | 360 | 2.0 | 6.0 | 0.00 | 0.00 | 0.00 | 58 | 1012.8 |
| 20260505202533 | 40 | 360 | 3.0 | 6.0 | 0.00 | 0.00 | 0.00 | 58 | 1013.0 |
| 20260505202035 | 40 | 360 | 1.0 | 8.0 | 0.00 | 0.00 | 0.00 | 61 | 1012.9 |
| 20260505201545 | 40 | 360 | 1.0 | 8.0 | 0.00 | 0.00 | 0.00 | 59 | 1013.0 |
| 20260505201032 | 40 | 360 | 3.0 | 8.0 | 0.00 | 0.00 | 0.00 | 58 | 1013.0 |
| 20260505200532 | 40 | 360 | 2.0 | 8.0 | 0.00 | 0.00 | 0.00 | 59 | 1012.9 |
| 20260505200032 | 40 | 360 | 2.0 | 11.0 | 0.00 | 0.00 | 0.00 | 60 | 1012.9 |
| 20260505195530 | 40 | 360 | 2.0 | 11.0 | 0.00 | 0.00 | 0.00 | 60 | 1012.9 |
| 20260505195030 | 40 | 360 | 3.0 | 9.0 | 0.00 | 0.00 | 0.00 | 59 | 1012.9 |
| 20260505194530 | 40 | 360 | 2.0 | 10.0 | 0.00 | 0.00 | 0.00 | 60 | 1012.9 |
| 20260505194031 | 40 | 360 | 3.0 | 10.0 | 0.00 | 0.00 | 0.00 | 58 | 1012.8 |
| 20260505193528 | 40 | 360 | 2.0 | 8.0 | 0.00 | 0.00 | 0.00 | 59 | 1012.8 |
| 20260505193042 | 40 | 360 | 2.0 | 12.0 | 0.00 | 0.00 | 0.00 | 62 | 1012.7 |
| 20260505192528 | 40 | 360 | 5.0 | 12.0 | 0.00 | 0.00 | 0.00 | 60 | 1012.7 |
| 20260505192031 | 40 | 360 | 4.0 | 11.0 | 0.00 | 0.00 | 0.00 | 59 | 1012.6 |
| 20260505191528 | 40 | 360 | 2.0 | 12.0 | 0.00 | 0.00 | 0.00 | 61 | 1012.6 |
| 20260505191027 | 40 | 360 | 3.0 | 12.0 | 0.00 | 0.00 | 0.00 | 59 | 1012.4 |
| 20260505190527 | 41 | 360 | 5.0 | 12.0 | 0.00 | 0.00 | 0.00 | 55 | 1012.4 |
| 20260505190032 | 41 | 360 | 4.0 | 11.0 | 0.00 | 0.00 | 0.00 | 56 | 1012.4 |
| 20260505185526 | 41 | 360 | 3.0 | 10.0 | 0.00 | 0.00 | 0.00 | 58 | 1012.3 |
| 20260505185026 | 41 | 360 | 4.0 | 9.0 | 0.00 | 0.00 | 0.00 | 56 | 1012.2 |
| 20260505184527 | 41 | 360 | 3.0 | 12.0 | 0.00 | 0.00 | 0.00 | 56 | 1012.2 |
| 20260505184027 | 42 | 360 | 2.0 | 13.0 | 0.00 | 0.00 | 0.00 | 56 | 1012.1 |
| 20260505183524 | 42 | 360 | 3.0 | 13.0 | 0.00 | 0.00 | 0.00 | 52 | 1011.9 |
| 20260505183042 | 41 | 360 | 4.0 | 12.0 | 0.00 | 0.00 | 0.00 | 55 | 1011.9 |
| 20260505182523 | 41 | 360 | 4.0 | 12.0 | 0.00 | 0.00 | 0.00 | 55 | 1012.1 |
| 20260505182023 | 42 | 360 | 6.0 | 12.0 | 0.00 | 0.00 | 0.00 | 56 | 1012.0 |
| 20260505181523 | 42 | 360 | 4.0 | 11.0 | 0.00 | 0.00 | 0.00 | 54 | 1012.1 |
| 20260505181025 | 42 | 360 | 2.0 | 9.0 | 0.00 | 0.00 | 0.00 | 55 | 1011.9 |
| 20260505180522 | 42 | 360 | 2.0 | 9.0 | 0.00 | 0.00 | 0.00 | 55 | 1011.9 |
| 20260505180032 | 42 | 360 | 4.0 | 9.0 | 0.00 | 0.00 | 0.00 | 56 | 1011.9 |
| 20260505175520 | 42 | 360 | 3.0 | 10.0 | 0.00 | 0.00 | 0.00 | 54 | 1011.9 |
| 20260505175023 | 42 | 360 | 3.0 | 8.0 | 0.00 | 0.00 | 0.00 | 57 | 1011.9 |
| 20260505174528 | 42 | 360 | 2.0 | 10.0 | 0.00 | 0.00 | 0.00 | 56 | 1012.0 |
| 20260505174019 | 42 | 360 | 3.0 | 9.0 | 0.00 | 0.00 | 0.00 | 55 | 1011.9 |
| 20260505173519 | 42 | 360 | 3.0 | 8.0 | 0.00 | 0.00 | 0.00 | 58 | 1011.9 |
| 20260505173019 | 41 | 360 | 3.0 | 8.0 | 0.00 | 0.00 | 0.00 | 58 | 1011.9 |
| 20260505172516 | 41 | 360 | 2.0 | 8.0 | 0.00 | 0.00 | 0.00 | 58 | 1011.9 |
| 20260505172025 | 41 | 360 | 2.0 | 8.0 | 0.00 | 0.00 | 0.00 | 58 | 1012.0 |
| 20260505171526 | 41 | 360 | 2.0 | 8.0 | 0.00 | 0.00 | 0.00 | 58 | 1011.9 |
| 20260505171016 | 41 | 360 | 3.0 | 9.0 | 0.00 | 0.00 | 0.00 | 59 | 1011.8 |
| 20260505170519 | 40 | 360 | 2.0 | 9.0 | 0.00 | 0.00 | 0.00 | 60 | 1011.7 |
| 20260505170016 | 40 | 360 | 1.0 | 8.0 | 0.00 | 0.00 | 0.00 | 60 | 1011.8 |
| 20260505165516 | 40 | 360 | 3.0 | 9.0 | 0.00 | 0.00 | 0.00 | 59 | 1011.8 |
| 20260505165014 | 41 | 360 | 3.0 | 9.0 | 0.00 | 0.00 | 0.00 | 59 | 1011.7 |
| 20260505164529 | 41 | 360 | 1.0 | 9.0 | 0.00 | 0.00 | 0.00 | 61 | 1011.7 |
| 20260505164013 | 41 | 360 | 2.0 | 9.0 | 0.00 | 0.00 | 0.00 | 61 | 1011.7 |
| 20260505163512 | 41 | 360 | 3.0 | 8.0 | 0.00 | 0.00 | 0.00 | 59 | 1011.6 |
| 20260505163016 | 41 | 360 | 2.0 | 9.0 | 0.00 | 0.00 | 0.00 | 62 | 1011.5 |
| 20260505162511 | 41 | 360 | 1.0 | 9.0 | 0.00 | 0.00 | 0.00 | 60 | 1011.4 |
| 20260505162010 | 42 | 360 | 3.0 | 9.0 | 0.00 | 0.00 | 0.00 | 61 | 1011.3 |
| 20260505161511 | 42 | 360 | 2.0 | 9.0 | 0.00 | 0.00 | 0.00 | 59 | 1011.4 |
| 20260505161008 | 42 | 360 | 3.0 | 9.0 | 0.00 | 0.00 | 0.00 | 63 | 1011.3 |
| 20260505160507 | 40 | 360 | 2.0 | 9.0 | 0.00 | 0.00 | 0.00 | 65 | 1011.3 |
| 20260505153002 | 41 | 360 | 2.0 | 8.0 | 0.00 | 0.00 | 0.00 | 62 | 1010.9 |
| 20260505152503 | 40 | 360 | 2.0 | 8.0 | 0.00 | 0.00 | 0.00 | 63 | 1010.9 |
| 20260505152002 | 40 | 360 | 3.0 | 9.0 | 0.00 | 0.00 | 0.00 | 62 | 1011.0 |
| 20260505151600 | 40 | 360 | 3.0 | 9.0 | 0.00 | 0.00 | 0.00 | 62 | 1011.0 |
| 20260505151059 | 40 | 360 | 3.0 | 9.0 | 0.00 | 0.00 | 0.00 | 62 | 1010.9 |
| 20260505150558 | 40 | 360 | 3.0 | 9.0 | 0.00 | 0.00 | 0.00 | 62 | 1011.0 |
| 20260505150113 | 40 | 360 | 2.0 | 9.0 | 0.00 | 0.00 | 0.00 | 63 | 1010.9 |
| 20260505140550 | 38 | 360 | 0.0 | 5.0 | 0.00 | 0.00 | 0.00 | 64 | 1010.4 |
| 20260505124542 | 33 | 360 | 1.0 | 4.0 | 0.00 | 0.00 | 0.00 | 73 | 1009.7 |
| 20260505124042 | 32 | 360 | 1.0 | 4.0 | 0.00 | 0.00 | 0.00 | 74 | 1009.5 |
| 20260505123540 | 32 | 360 | 1.0 | 3.0 | 0.00 | 0.00 | 0.00 | 76 | 1009.4 |
| 20260505123103 | 32 | 360 | 0.0 | 3.0 | 0.00 | 0.00 | 0.00 | 77 | 1009.4 |
| 20260505122540 | 32 | 360 | 1.0 | 4.0 | 0.00 | 0.00 | 0.00 | 78 | 1009.3 |
| 20260505122040 | 31 | 360 | 0.0 | 3.0 | 0.00 | 0.00 | 0.00 | 79 | 1009.3 |
| 20260505121541 | 31 | 360 | 0.0 | 4.0 | 0.00 | 0.00 | 0.00 | 80 | 1009.3 |
| 20260505121042 | 31 | 360 | 0.0 | 3.0 | 0.00 | 0.00 | 0.00 | 80 | 1009.2 |
| 20260505120537 | 31 | 360 | 0.0 | 3.0 | 0.00 | 0.00 | 0.00 | 80 | 1009.2 |
| 20260505120047 | 31 | 360 | 0.0 | 3.0 | 0.00 | 0.00 | 0.00 | 80 | 1009.1 |
| 20260505115538 | 30 | 360 | 0.0 | 2.0 | 0.00 | 0.00 | 0.00 | 80 | 1009.1 |
| 20260505115037 | 30 | 360 | 0.0 | 2.0 | 0.00 | 0.00 | 0.00 | 81 | 1009.1 |
| 20260505114548 | 30 | 360 | 0.0 | 2.0 | 0.00 | 0.00 | 0.00 | 81 | 1009.1 |
| 20260505114038 | 30 | 360 | 0.0 | 1.0 | 0.00 | 0.00 | 0.00 | 81 | 1009.1 |
| 20260505113535 | 30 | 360 | 0.0 | 2.0 | 0.00 | 0.00 | 0.00 | 81 | 1009.0 |
| 20260505113036 | 30 | 360 | 0.0 | 2.0 | 0.00 | 0.00 | 0.00 | 81 | 1008.9 |
| 20260505112535 | 30 | 360 | 0.0 | 1.0 | 0.00 | 0.00 | 0.00 | 80 | 1008.9 |
| 20260505112103 | 30 | 360 | 0.0 | 1.0 | 0.00 | 0.00 | 0.00 | 80 | 1008.8 |
| 20260505111533 | 30 | 360 | 0.0 | 2.0 | 0.00 | 0.00 | 0.00 | 80 | 1008.8 |
| 20260505111033 | 30 | 360 | 0.0 | 2.0 | 0.00 | 0.00 | 0.00 | 80 | 1008.7 |
| 20260505110532 | 30 | 360 | 0.0 | 2.0 | 0.00 | 0.00 | 0.00 | 79 | 1008.7 |
| 20260505102028 | 30 | 360 | 0.0 | 0.0 | 0.00 | 0.00 | 0.00 | 77 | 1008.6 |
| 20260505101528 | 30 | 360 | 0.0 | 1.0 | 0.00 | 0.00 | 0.00 | 76 | 1008.7 |
| 20260505101027 | 30 | 360 | 0.0 | 0.0 | 0.00 | 0.00 | 0.00 | 75 | 1008.6 |
| 20260505100529 | 30 | 360 | 0.0 | 1.0 | 0.00 | 0.00 | 0.00 | 76 | 1008.6 |
| 20260505100032 | 30 | 360 | 0.0 | 1.0 | 0.00 | 0.00 | 0.00 | 77 | 1008.6 |
| 20260505095527 | 30 | 360 | 0.0 | 2.0 | 0.00 | 0.00 | 0.00 | 77 | 1008.6 |
| 20260505095025 | 30 | 360 | 0.0 | 2.0 | 0.00 | 0.00 | 0.00 | 77 | 1008.6 |
| 20260505094524 | 30 | 360 | 0.0 | 0.0 | 0.00 | 0.00 | 0.00 | 77 | 1008.5 |
| 20260505094024 | 29 | 360 | 0.0 | 0.0 | 0.00 | 0.00 | 0.00 | 77 | 1008.5 |
| 20260505093523 | 29 | 360 | 0.0 | 0.0 | 0.00 | 0.00 | 0.00 | 78 | 1008.6 |
| 20260505093123 | 29 | 360 | 0.0 | 0.0 | 0.00 | 0.00 | 0.00 | 79 | 1008.6 |
| 20260505092522 | 30 | 360 | 0.0 | 0.0 | 0.00 | 0.00 | 0.00 | 79 | 1008.6 |
| 20260505092021 | 30 | 360 | 0.0 | 0.0 | 0.00 | 0.00 | 0.00 | 77 | 1008.5 |
| 20260505091529 | 30 | 360 | 0.0 | 0.0 | 0.00 | 0.00 | 0.00 | 76 | 1008.5 |
| 20260505091019 | 30 | 360 | 0.0 | 0.0 | 0.00 | 0.00 | 0.00 | 75 | 1008.5 |
| 20260505090519 | 30 | 360 | 0.0 | 0.0 | 0.00 | 0.00 | 0.00 | 76 | 1008.4 |
| 20260505090036 | 31 | 360 | 0.0 | 0.0 | 0.00 | 0.00 | 0.00 | 77 | 1008.5 |
| 20260505085517 | 31 | 360 | 0.0 | 0.0 | 0.00 | 0.00 | 0.00 | 77 | 1008.4 |
| 20260505085017 | 31 | 360 | 0.0 | 1.0 | 0.00 | 0.00 | 0.00 | 77 | 1008.4 |
| 20260505084519 | 30 | 360 | 0.0 | 0.0 | 0.00 | 0.00 | 0.00 | 77 | 1008.3 |
| 20260505084015 | 30 | 360 | 0.0 | 0.0 | 0.00 | 0.00 | 0.00 | 78 | 1008.3 |
| 20260505083516 | 30 | 360 | 0.0 | 0.0 | 0.00 | 0.00 | 0.00 | 78 | 1008.2 |
| 20260505083014 | 30 | 360 | 0.0 | 0.0 | 0.00 | 0.00 | 0.00 | 78 | 1008.2 |
| 20260505082512 | 31 | 360 | 0.0 | 0.0 | 0.00 | 0.00 | 0.00 | 78 | 1008.1 |
| 20260505082012 | 31 | 360 | 0.0 | 0.0 | 0.00 | 0.00 | 0.00 | 78 | 1008.3 |
| 20260505081511 | 31 | 360 | 0.0 | 1.0 | 0.00 | 0.00 | 0.00 | 78 | 1008.2 |
| 20260505081009 | 32 | 360 | 0.0 | 1.0 | 0.00 | 0.00 | 0.00 | 77 | 1008.2 |
| 20260505080508 | 32 | 360 | 0.0 | 0.0 | 0.00 | 0.00 | 0.00 | 75 | 1008.1 |
| 20260505080008 | 33 | 360 | 0.0 | 0.0 | 0.00 | 0.00 | 0.00 | 75 | 1008.1 |
| 20260505075506 | 33 | 360 | 0.0 | 3.0 | 0.00 | 0.00 | 0.00 | 75 | 1008.1 |
| 20260505075004 | 33 | 360 | 0.0 | 3.0 | 0.00 | 0.00 | 0.00 | 74 | 1008.0 |